This is the latest recevied weather packets stored in our database for station/object W8XLR-2. If no packets are shown the sender has not sent any weather packets the latest 10 day(s).
| Time | Temp. | Humidity | Pressure | Rain* | Wind** | Luminosity | Snow |
|---|---|---|---|---|---|---|---|
| 1777944410 | 19.44° C | 59% | 1008.5 hPa | 0 mm | - | - | - |
| 1777943811 | 19.44° C | 59% | 1008.5 hPa | 0 mm | - | - | - |
| 1777943210 | 19.44° C | 58% | 1008.4 hPa | 0 mm | - | - | - |
| 1777942608 | 20° C | 57% | 1008.2 hPa | 0 mm | - | - | - |
| 1777942011 | 20° C | 57% | 1008.2 hPa | 0 mm | - | - | - |
| 1777941411 | 20.56° C | 56% | 1008.1 hPa | 0 mm | - | - | - |
| 1777940810 | 20.56° C | 56% | 1008 hPa | 0 mm | - | - | - |
| 1777940208 | 20.56° C | 56% | 1008 hPa | 0 mm | - | - | - |
| 1777939620 | 20.56° C | 55% | 1007.8 hPa | 0 mm | - | - | - |
| 1777939009 | 21.11° C | 56% | 1007.7 hPa | 0 mm | - | - | - |
| 1777938416 | 21.11° C | 56% | 1007.7 hPa | 0 mm | - | - | - |
| 1777937809 | 21.11° C | 55% | 1007.5 hPa | 0 mm | - | - | - |
| 1777937353 | 21.11° C | 56% | 1007.9 hPa | 0 mm | - | - | - |
| 1777937218 | 21.11° C | 56% | 1007.9 hPa | 0 mm | - | - | - |
| 1777936612 | 21.11° C | 56% | 1007.9 hPa | 0 mm | - | - | - |
| 1777936009 | 21.67° C | 54% | 1007.9 hPa | 0 mm | - | - | - |
| 1777935411 | 21.67° C | 54% | 1008.2 hPa | 0 mm | - | - | - |
| 1777934813 | 21.67° C | 54% | 1008.2 hPa | 0 mm | - | - | - |
| 1777934208 | 21.67° C | 55% | 1008.3 hPa | 0 mm | - | - | - |
| 1777933609 | 22.22° C | 53% | 1008.2 hPa | 0 mm | - | - | - |
| 1777933009 | 22.22° C | 53% | 1008.2 hPa | 0 mm | - | - | - |
| 1777932412 | 21.67° C | 53% | 1008.5 hPa | 0 mm | - | - | - |
| 1777931808 | 21.67° C | 52% | 1008.4 hPa | 0 mm | - | - | - |
| 1777931209 | 21.67° C | 52% | 1008.4 hPa | 0 mm | - | - | - |
| 1777930609 | 21.67° C | 50% | 1008.6 hPa | 0 mm | - | - | - |
* Rain latest hour (hover to see other rain measurements)
** Current wind speed in m/s (hover to see current wind gust speed)